Bogota, Colombia

2:10 PM COT on October 01, 2016 (GMT -0500)
Eldorado International

Weather History for SKBO - May, 2013

Change the Weather History Date:

Friday, May 17, 2013

  Actual Average Record
Temperature  
Mean Temperature 57 °F -  
Max Temperature 63 °F 64 °F 80 °F (2011)
Min Temperature 51 °F 48 °F 42 °F (2001)
Degree Days  
Heating Degree Days 8    
Growing Degree Days 7 (Base 50)    
Moisture  
Dew Point 53 °F    
Average Humidity 86    
Maximum Humidity 100    
Minimum Humidity 64    
Precipitation  
Precipitation 0.16 in - - ()
Sea Level Pressure  
Sea Level Pressure 30.34 in    
Wind  
Wind Speed 4 mph ()    
Max Wind Speed 11 mph    
Max Gust Speed -    
Visibility 5.3 miles    
Events Rain    
Averages and records for this station are not official NWS values.
T = Trace of Precipitation, MM = Missing Value Source: Averaged Metar Reports

Daily Weather History Graph

Daily Weather History Graph

Search for Another Location

Airport or City:

Trip Planner

Search our weather history database for the weather conditions in past years. The results will help you decide how hot, cold, wet, or windy it might be!

Date:

Astronomy

May. 17, 2013 Rise Set
Actual Time 5:42 AM COT 6:03 PM COT
Civil Twilight 5:20 AM COT 6:25 PM COT
Nautical Twilight 4:55 AM COT 6:51 PM COT
Astronomical Twilight 4:29 AM COT 7:16 PM COT
Moon 11:39 AM COT (5/17) No Moon Set
Length of Visible Light 13h 04m
Length of Day
12h 20m
Waxing Crescent, 45% of the Moon is Illuminated
May 17
Waxing Crescent
May 17
First Quarter
May 24
Full
May 31
Last Quarter
Jun 8
New

Hourly Weather History & Observations

Time (COT) Temp. Dew Point Humidity Pressure Visibility Wind Dir Wind Speed Gust Speed Precip Events Conditions
12:00 AM 53.6 °F 51.8 °F 94% 30.33 in 6.2 mi North 3.5 mph - N/A   Scattered Clouds
1:00 AM 54 °F 53 °F 93%  in 9 mi NE 2.2 mph - -   Haze
1:00 AM 53.6 °F 51.8 °F 94% 30.33 in 6.2 mi Variable 2.3 mph - N/A   Scattered Clouds
2:00 AM 55.4 °F 50.0 °F 82% 30.31 in 6.2 mi NE 3.5 mph - N/A   Light Drizzle
3:00 AM 53.6 °F 51.8 °F 94% 30.30 in 4.3 mi ENE 4.6 mph - N/A   Drizzle
4:00 AM 54 °F 52 °F 92%  in 4 mi NE 6.7 mph - - Rain Drizzle
4:00 AM 53.6 °F 51.8 °F 94% 30.31 in 4.3 mi NE 5.8 mph - N/A   Drizzle
5:00 AM 53.6 °F 51.8 °F 94% 30.33 in 4.3 mi NNW 4.6 mph - N/A   Drizzle
5:30 AM 53.6 °F 51.8 °F 94% 30.34 in 4.3 mi Variable 2.3 mph - N/A   Drizzle
6:00 AM 53.6 °F 51.8 °F 94% 30.35 in 4.3 mi Calm Calm - N/A   Drizzle
6:30 AM 53.6 °F 53.6 °F 100% 30.36 in 3.1 mi NE 3.5 mph - N/A Rain Light Rain
7:00 AM 54 °F 53 °F 93%  in 3 mi Calm Calm - - Rain Light Rain
7:00 AM 53.6 °F 51.8 °F 94% 30.37 in 3.1 mi Calm Calm - N/A Rain Light Rain
8:00 AM 53.6 °F 53.6 °F 100% 30.39 in 3.7 mi ENE 3.5 mph - N/A   Light Drizzle
9:00 AM 55.4 °F 51.8 °F 88% - 3.7 mi SE 6.9 mph - N/A   Heavy Drizzle
10:00 AM 56 °F 53 °F 85%  in 4 mi ENE 6.7 mph - - Rain Light Drizzle
10:00 AM 57.2 °F 53.6 °F 88% 30.40 in 3.7 mi ENE 5.8 mph - N/A   Light Drizzle
11:00 AM 57.2 °F 51.8 °F 82% 30.39 in 5.6 mi NNE 9.2 mph - N/A   Light Drizzle
12:00 PM 62.6 °F 53.6 °F 72% 30.36 in 6.2 mi North 5.8 mph - N/A   Scattered Clouds
1:00 PM 61 °F 52 °F 64%  in 7 mi ENE 11.2 mph - -   Partly Cloudy
1:00 PM 60.8 °F 51.8 °F 72% 30.33 in 6.2 mi ENE 10.4 mph - N/A   Scattered Clouds
2:00 PM 62.6 °F 53.6 °F 72% 30.30 in 6.2 mi NNW 4.6 mph - N/A   Scattered Clouds
3:00 PM 62.6 °F 51.8 °F 68% 30.29 in 6.2 mi West 6.9 mph - N/A   Mostly Cloudy
4:00 PM 64 °F 55 °F 66%  in 11 mi NNW 8.9 mph - -   Haze
4:00 PM 64.4 °F 55.4 °F 73% 30.27 in 6.2 mi NNW 9.2 mph - N/A   Mostly Cloudy
5:00 PM 62.6 °F 53.6 °F 72% 30.27 in 6.2 mi WNW 6.9 mph - N/A   Scattered Clouds
6:00 PM 62.6 °F 53.6 °F 72% 30.29 in 6.2 mi NNW 4.6 mph - N/A   Scattered Clouds
7:00 PM 59 °F 54 °F 77%  in 9 mi SW 4.5 mph - -   Haze
7:00 PM 59.0 °F 53.6 °F 82% 30.34 in 6.2 mi SW 3.5 mph - N/A   Scattered Clouds
8:00 PM 57.2 °F 53.6 °F 88% 30.37 in 6.2 mi WSW 4.6 mph - N/A   Scattered Clouds
9:00 PM 55.4 °F 53.6 °F 94% 30.39 in 3.1 mi WSW 4.6 mph - N/A   Scattered Clouds
10:00 PM 53 °F 51 °F 90%  in 2 mi Calm Calm - -   Mist
10:00 PM 51.8 °F 51.8 °F 100% 30.40 in 1.9 mi Calm Calm - N/A   Scattered Clouds
11:00 PM 53.6 °F 51.8 °F 94% 30.40 in 6.2 mi NNE 3.5 mph - N/A   Scattered Clouds